Regional Weather Roundup
Issued by NWS

Home | Current Version | Previous Version | Graphics & Text | Print | Product List | Glossary Off
Versions: 1 2 3 4 5 6 7 8 9 10 11 12 13 14 15 16 17 18 19 20 21 22 23 24 25 26 27 28 29 30 31 32 33 34 35 36 37 38 39 40 41 42 43 44 45 46 47 48 49 50

000
ASUS43 KLOT 010112
RWRIL

ILLINOIS REGIONAL WEATHER ROUNDUP
NATIONAL WEATHER SERVICE CHICAGO/ROMEOVILLE IL
800 PM CDT FRI SEP 30 2016

NOTE: "FAIR" INDICATES FEW OR NO CLOUDS BELOW 12,000 FEET WITH NO
SIGNIFICANT WEATHER AND/OR OBSTRUCTIONS TO VISIBILITY.

* THESE STATIONS ARE NOT UNDER NWS QUALITY CONTROL. THEY ALSO MAY NOT
  REPORT WEATHER SUCH AS PRECIPITATION OR FOG.

ILZ001-002-007-009-015-016-024-010200-
NORTHWEST ILLINOIS

CITY           SKY/WX    TMP DP  RH WIND       PRES   REMARKS
MOLINE         CLOUDY    62  59  90 N5        30.10F
STERLING*      CLOUDY    61  59  93 NE8       30.10F
SAVANNA*       CLOUDY    61  58  90 N7        30.12S
$$

ILZ003-004-008-010-011-017-018-010200-
NORTH CENTRAL ILLINOIS

CITY           SKY/WX    TMP DP  RH WIND       PRES   REMARKS
ROCKFORD       LGT RAIN  61  59  93 NE13      30.12S FOG
FREEPORT*      CLOUDY    60  56  89 NE10      30.14S
ROCHELLE*      DRIZZLE   60  59  97 N8        30.10F
DE KALB*       CLOUDY    62  59  90 NE8       30.09S
$$

ILZ005-006-012>014-019>023-010200-
NORTHEAST ILLINOIS

CITY           SKY/WX    TMP DP  RH WIND       PRES   REMARKS
CHICAGO-OHARE  LGT RAIN  62  58  86 NE10      30.07S
CHICAGO-MIDWAY CLOUDY    64  57  78 E14       30.06F
AURORA         LGT RAIN  64  58  80 NE13G24   30.08S
LANSING*       RAIN      60  60 100 NE8       30.05F
JOLIET*        CLOUDY    64  60  88 NE12G17   30.06S
WAUKEGAN       LGT RAIN  62  59  90 NE9       30.08F
DUPAGE AIRPORT CLOUDY    63  57  81 NE10G18   30.07S
KANKAKEE*      RAIN      61  60  97 N7        30.05R
WHEELING       CLOUDY    63  58  83 E7        30.09S
MORRIS*        CLOUDY    63  58  84 CALM      30.05S
ROMEOVILLE*    CLOUDY    62  61  95 NE10G17   30.06S
NORTHERLY ISL    N/A     61  57  87 NE13        N/A
$$

LMZ740>746-010200-
SOUTHERN LAKE MICHIGAN

STATION/POSITION SKY/WX   TEMP    WIND        PRES    VSBY  WAVE
                          AIR SEA DIR/SP/G                  HT/PER
                          (F)     (DEG/KT/KT) (MB)    (MI)  (FT/S)
SOUTHERN BUOY              64 68   70/ 21/ 25 1018.3          5/ 6
WILMETTE HARBOR            62 59  100/ 12/ 17   N/A           5/ 6
HARRISON CRIB              64      70/ 16/ 19   N/A
BURNHAM HARBOR             62      60/ 13/ 18   N/A
CALUMET HARBOR             62      40/ 14/ 18 1017.8R
BURNS HARBOR               62      50/ 17/ 20 1017.6S
MICHIGAN CITY              61      20/ 17/ 19   N/A
MICHIGAN CITY 6N           62 64   50/ 14/ 17   N/A           4/ 6
ST. JOSEPH                 55 51   30/  8/ 12 1018.1          3/ 6
$$

ILZ025>027-034>036-040-047-049-050-058-095>099-010200-
WEST-CENTRAL ILLINOIS

CITY           SKY/WX    TMP DP  RH WIND       PRES   REMARKS
QUINCY         CLOUDY    64  57  78 N9        30.09R
GALESBURG*     RAIN      62  58  88 N14       30.09S
MACOMB*        CLOUDY    63  58  86 N8        30.11R
JACKSONVILLE*  RAIN      63  60  88 N12       30.06S
PITTSFIELD*    HVY RAIN  64  59  83 N6        30.09R
$$

ILZ028>032-037-038-041>044-048-051>054-059>061-010200-
CENTRAL ILLINOIS

CITY           SKY/WX    TMP DP  RH WIND       PRES   REMARKS
PONTIAC        CLOUDY    64  62  93 NE10      30.05S
BLOOMINGTON    LGT RAIN  61  60  97 N9        30.04F
DECATUR        CLOUDY    64  59  83 N8        30.02S
PEORIA         LGT RAIN  62  62 100 N5        30.06S
LACON*         CLOUDY    63  58  84 CALM      30.05F
LINCOLN*       CLOUDY    65  61  86 N9G16     30.04S
SPRINGFIELD    CLOUDY    64  61  90 NW9       30.04S
TAYLORVILLE    CLOUDY    62  61  97 NW5       30.03S
$$

ILZ033-039-045-046-055>057-062-063-010200-
EAST-CENTRAL ILLINOIS

CITY           SKY/WX    TMP DP  RH WIND       PRES   REMARKS
CHAMPAIGN      CLOUDY    63  60  90 N8        30.01S
RANTOUL*       RAIN      64  63  95 N13       30.01S
MATTOON        CLOUDY    61  60  97 NW5       30.00R
PARIS*         HVY RAIN  61  60  97 CALM      30.01R
$$

ILZ079-100>102-010200-
SOUTHWEST ILLINOIS

CITY           SKY/WX    TMP DP  RH WIND       PRES   REMARKS
BELLEVILLE     LGT RAIN  63  63 100 NW5       30.02S
CAHOKIA*       CLOUDY    64  59  83 NW9       30.04S
SPARTA*        CLOUDY    62  59  92 NW6       30.04S
$$

ILZ064>066-069>071-074>076-080>082-084>086-088>090-092>094-010200-
SOUTH-CENTRAL ILLINOIS

CITY           SKY/WX    TMP DP  RH WIND       PRES   REMARKS
CARBONDALE     MOCLDY    62  61  96 W7        30.02S
CAIRO*         LGT RAIN  62  61  97 N3        30.04R
EFFINGHAM*     LGT RAIN  63  63 100 CALM      30.01S
MARION         CLOUDY    63  63 100 CALM      30.02S
MT. VERNON     CLOUDY    63  55  77 CALM      30.01S
CENTRALIA*     CLOUDY    64  63  97 NW5       30.01S
SALEM*         MOCLDY    63  60  92 NW3       30.01S
METROPOLIS*    CLOUDY    63  60  92 W6        30.03R
$$

ILZ067-068-072-073-078-083-087-091-010200-
SOUTHEAST ILLINOIS

CITY           SKY/WX    TMP DP  RH WIND       PRES   REMARKS
LAWRENCEVILLE  CLOUDY    61  57  87 CALM      29.99F
FLORA*         RAIN      64  61  91 N5        30.00S
FAIRFIELD*       N/A     59  59  99 SW3       30.00R
HARRISBURG*    CLOUDY    63  60  91 W6        30.00F
ROBINSON*      RAIN      60  59  97 CALM      30.01R
CARMI*         LGT RAIN  61  61 100 SW3       29.99F
$$

ABBREVIATIONS USED IN REMARKS
   TC - TEMPERATURE IN CELSIUS
  WCI - WIND CHILL INDEX
   HX - HEAT INDEX
  VSB - VISIBILITY
$$





USA.gov is the U.S. government's official web portal to all federal, state and local government web resources and services.